| time (UTC) | temp F | wind direction | speed MPH | gust MPH | rain 1hr in | rain 24hr in | rain mn in | humidity % | barometer mb |
| 20260509034504 | 49 | 121 | 2.0 | 5.0 | 0.00 | 0.01 | 0.01 | 84 | 1006.4 |
| 20260509033006 | 50 | 118 | 2.0 | 8.0 | 0.00 | 0.01 | 0.01 | 84 | 1006.5 |
| 20260509030007 | 50 | 121 | 2.0 | 4.0 | 0.00 | 0.01 | 0.01 | 84 | 1006.7 |
| 20260509024505 | 51 | 128 | 2.0 | 4.0 | 0.00 | 0.01 | 0.01 | 84 | 1006.9 |
| 20260509020008 | 52 | 151 | 1.0 | 2.0 | 0.00 | 0.01 | 0.01 | 80 | 1006.9 |
| 20260509014504 | 53 | 151 | 1.0 | 2.0 | 0.00 | 0.01 | 0.01 | 77 | 1006.8 |
| 20260509013007 | 53 | 151 | 1.0 | 3.0 | 0.00 | 0.01 | 0.01 | 74 | 1006.7 |
| 20260509011505 | 54 | 151 | 1.0 | 3.0 | 0.00 | 0.01 | 0.01 | 70 | 1006.5 |
| 20260509010008 | 55 | 150 | 1.0 | 2.0 | 0.00 | 0.01 | 0.01 | 66 | 1006.4 |
| 20260509004504 | 56 | 150 | 2.0 | 3.0 | 0.00 | 0.01 | 0.01 | 65 | 1006.3 |
| 20260509001504 | 58 | 145 | 1.0 | 5.0 | 0.00 | 0.01 | 0.01 | 58 | 1006.2 |
| 20260509000008 | 59 | 137 | 1.0 | 3.0 | 0.00 | 0.01 | 0.01 | 57 | 1006.2 |
| 20260508234504 | 60 | 140 | 2.0 | 5.0 | 0.00 | 0.01 | 0.01 | 54 | 1006.1 |
| 20260508233007 | 62 | 147 | 2.0 | 8.0 | 0.00 | 0.01 | 0.01 | 51 | 1006.3 |
| 20260508231505 | 62 | 146 | 2.0 | 9.0 | 0.00 | 0.01 | 0.01 | 49 | 1006.2 |
| 20260508230007 | 64 | 172 | 2.0 | 7.0 | 0.00 | 0.01 | 0.01 | 45 | 1006.3 |
| 20260508224504 | 64 | 226 | 4.0 | 9.0 | 0.00 | 0.01 | 0.01 | 37 | 1006.3 |
| 20260508223007 | 63 | 253 | 4.0 | 13.0 | 0.00 | 0.01 | 0.01 | 35 | 1006.2 |
| 20260508221505 | 63 | 243 | 4.0 | 12.0 | 0.00 | 0.01 | 0.01 | 37 | 1006.3 |
| 20260508220008 | 63 | 244 | 6.0 | 13.0 | 0.00 | 0.01 | 0.01 | 34 | 1006.5 |
| 20260508214504 | 63 | 229 | 4.0 | 14.0 | 0.00 | 0.01 | 0.01 | 36 | 1006.5 |
| 20260508213006 | 64 | 220 | 3.0 | 10.0 | 0.00 | 0.01 | 0.01 | 37 | 1006.5 |
| 20260508211504 | 63 | 227 | 4.0 | 14.0 | 0.00 | 0.01 | 0.01 | 36 | 1006.6 |
| 20260508210008 | 64 | 207 | 3.0 | 6.0 | 0.00 | 0.01 | 0.01 | 37 | 1006.7 |
| 20260508204504 | 63 | 241 | 5.0 | 11.0 | 0.00 | 0.01 | 0.01 | 39 | 1006.8 |
| 20260508203006 | 62 | 232 | 5.0 | 10.0 | 0.00 | 0.01 | 0.01 | 34 | 1007.0 |
| 20260508201504 | 63 | 214 | 5.0 | 13.0 | 0.00 | 0.01 | 0.01 | 34 | 1007.2 |
| 20260508200007 | 62 | 213 | 5.0 | 11.0 | 0.00 | 0.01 | 0.01 | 35 | 1007.5 |
| 20260508194504 | 62 | 245 | 5.0 | 12.0 | 0.00 | 0.01 | 0.01 | 37 | 1007.7 |
| 20260508193006 | 62 | 229 | 4.0 | 17.0 | 0.00 | 0.01 | 0.01 | 34 | 1007.9 |
| 20260508191505 | 62 | 243 | 3.0 | 12.0 | 0.00 | 0.01 | 0.01 | 35 | 1008.0 |
| 20260508183008 | 62 | 195 | 2.0 | 9.0 | 0.00 | 0.01 | 0.01 | 31 | 1008.5 |
| 20260508181505 | 60 | 251 | 4.0 | 8.0 | 0.00 | 0.01 | 0.01 | 37 | 1008.8 |
| 20260508180008 | 60 | 238 | 3.0 | 10.0 | 0.00 | 0.01 | 0.01 | 35 | 1009.0 |
| 20260508173008 | 59 | 238 | 5.0 | 13.0 | 0.00 | 0.01 | 0.01 | 37 | 1009.5 |
| 20260508171504 | 60 | 222 | 3.0 | 8.0 | 0.00 | 0.01 | 0.01 | 40 | 1009.6 |
| 20260508170007 | 59 | 218 | 4.0 | 9.0 | 0.00 | 0.01 | 0.01 | 42 | 1010.0 |
| 20260508164505 | 57 | 258 | 4.0 | 10.0 | 0.00 | 0.01 | 0.01 | 39 | 1010.2 |
| 20260508163007 | 58 | 223 | 2.0 | 5.0 | 0.00 | 0.01 | 0.01 | 40 | 1010.2 |
| 20260508161504 | 57 | 260 | 3.0 | 7.0 | 0.00 | 0.01 | 0.01 | 39 | 1010.2 |
| 20260508160007 | 57 | 329 | 4.0 | 8.0 | 0.00 | 0.01 | 0.01 | 47 | 1010.4 |
| 20260508154504 | 55 | 264 | 3.0 | 10.0 | 0.00 | 0.01 | 0.01 | 45 | 1010.6 |
| 20260508153007 | 56 | 231 | 3.0 | 9.0 | 0.00 | 0.01 | 0.01 | 49 | 1010.6 |
| 20260508151504 | 55 | 244 | 4.0 | 8.0 | 0.00 | 0.01 | 0.01 | 53 | 1010.8 |
| 20260508150007 | 54 | 259 | 3.0 | 9.0 | 0.00 | 0.01 | 0.01 | 51 | 1010.8 |
| 20260508144504 | 54 | 228 | 3.0 | 7.0 | 0.00 | 0.01 | 0.01 | 51 | 1010.9 |
| 20260508143008 | 53 | 236 | 3.0 | 9.0 | 0.00 | 0.01 | 0.01 | 59 | 1011.0 |
| 20260508141505 | 53 | 226 | 2.0 | 7.0 | 0.00 | 0.01 | 0.01 | 58 | 1011.1 |
| 20260508140010 | 52 | 236 | 1.0 | 5.0 | 0.00 | 0.01 | 0.01 | 58 | 1011.1 |
| 20260508134505 | 51 | 252 | 2.0 | 5.0 | 0.00 | 0.01 | 0.01 | 61 | 1011.1 |
| 20260508133007 | 50 | 248 | 2.0 | 5.0 | 0.00 | 0.01 | 0.01 | 62 | 1011.2 |
| 20260508131505 | 49 | 260 | 2.0 | 7.0 | 0.00 | 0.01 | 0.01 | 65 | 1011.3 |
| 20260508130007 | 48 | 263 | 2.0 | 6.0 | 0.00 | 0.01 | 0.01 | 69 | 1011.3 |
| 20260508124504 | 47 | 265 | 2.0 | 4.0 | 0.00 | 0.01 | 0.01 | 74 | 1011.1 |
| 20260508123008 | 46 | 266 | 1.0 | 6.0 | 0.00 | 0.01 | 0.01 | 79 | 1011.0 |
| 20260508121505 | 45 | 228 | 0.0 | 3.0 | 0.00 | 0.01 | 0.01 | 83 | 1010.9 |
| 20260508120008 | 44 | 228 | 0.0 | 2.0 | 0.00 | 0.01 | 0.01 | 84 | 1010.9 |
| 20260508114504 | 42 | 228 | 0.0 | 1.0 | 0.01 | 0.01 | 0.01 | 83 | 1010.7 |
| 20260508113007 | 41 | 228 | 0.0 | 2.0 | 0.01 | 0.01 | 0.01 | 83 | 1010.6 |
| 20260508111505 | 39 | 226 | 0.0 | 2.0 | 0.01 | 0.01 | 0.01 | 84 | 1010.5 |
| 20260508110008 | 38 | 226 | 0.0 | 1.0 | 0.01 | 0.01 | 0.01 | 84 | 1010.5 |
| 20260508103008 | 37 | 0 | 0.0 | 0.0 | 0.00 | 0.00 | 0.00 | 85 | 1010.4 |
| 20260508101504 | 37 | 0 | 0.0 | 0.0 | 0.00 | 0.00 | 0.00 | 85 | 1010.5 |
| 20260508100008 | 38 | 0 | 0.0 | 0.0 | 0.00 | 0.00 | 0.00 | 86 | 1010.5 |
| 20260508093007 | 40 | 0 | 0.0 | 0.0 | 0.00 | 0.00 | 0.00 | 86 | 1010.7 |
| 20260508091504 | 40 | 0 | 0.0 | 0.0 | 0.00 | 0.00 | 0.00 | 86 | 1010.7 |
| 20260508083008 | 42 | 0 | 0.0 | 0.0 | 0.00 | 0.00 | 0.00 | 85 | 1010.6 |
| 20260508081505 | 42 | 0 | 0.0 | 0.0 | 0.00 | 0.00 | 0.00 | 85 | 1010.6 |
| 20260508080009 | 42 | 226 | 0.0 | 2.0 | 0.00 | 0.00 | 0.00 | 85 | 1010.5 |
| 20260508074504 | 43 | 226 | 0.0 | 2.0 | 0.00 | 0.00 | 0.00 | 84 | 1010.5 |
| 20260508071504 | 43 | 222 | 2.0 | 9.0 | 0.00 | 0.00 | 0.00 | 83 | 1010.6 |
| 20260508064505 | 43 | 230 | 2.0 | 4.0 | 0.00 | 0.00 | 0.00 | 83 | 1010.7 |
| 20260508063006 | 43 | 298 | 0.0 | 2.0 | 0.00 | 0.00 | 0.00 | 84 | 1010.8 |
| 20260508061504 | 43 | 298 | 0.0 | 2.0 | 0.00 | 0.00 | 0.00 | 84 | 1011.1 |
| 20260508060007 | 43 | 298 | 0.0 | 1.0 | 0.00 | 0.00 | 0.00 | 85 | 1011.1 |
| 20260508054504 | 42 | 0 | 0.0 | 0.0 | 0.00 | 0.00 | 0.00 | 84 | 1011.2 |
| 20260508053007 | 42 | 298 | 0.0 | 2.0 | 0.00 | 0.00 | 0.00 | 84 | 1011.4 |
| 20260508051504 | 42 | 0 | 0.0 | 0.0 | 0.00 | 0.00 | 0.00 | 84 | 1011.4 |
| 20260508050007 | 43 | 0 | 0.0 | 0.0 | 0.00 | 0.00 | 0.00 | 85 | 1011.5 |
| 20260508044505 | 43 | 0 | 0.0 | 0.0 | 0.00 | 0.00 | 0.00 | 82 | 1011.5 |
| 20260508043009 | 43 | 0 | 0.0 | 0.0 | 0.00 | 0.00 | 0.00 | 83 | 1011.3 |
| 20260508041505 | 43 | 0 | 0.0 | 0.0 | 0.00 | 0.00 | 0.00 | 81 | 1011.3 |
| 20260508040030 | 44 | 302 | 2.0 | 4.0 | 0.00 | 0.00 | 0.00 | 79 | 1011.2 |